TimeEST,TemperatureF,Dew PointF,Humidity,Sea Level PressureIn,VisibilityMPH,Wind Direction,Wind SpeedMPH,Gust SpeedMPH,PrecipitationIn,Events,Conditions,WindDirDegrees,DateUTC
12:53 AM,62.1,61.0,96,30.06,10.0,NNE,5.8,-,N/A,,Partly Cloudy,20,2012-12-06 05:53:00
1:53 AM,61.0,60.1,97,30.06,10.0,North,3.5,-,N/A,,Partly Cloudy,10,2012-12-06 06:53:00
2:53 AM,61.0,59.0,93,30.05,10.0,Calm,Calm,-,N/A,,Mostly Cloudy,0,2012-12-06 07:53:00
3:53 AM,62.1,60.1,93,30.04,10.0,Calm,Calm,-,N/A,,Mostly Cloudy,0,2012-12-06 08:53:00
4:53 AM,61.0,60.1,97,30.02,10.0,North,4.6,-,N/A,,Scattered Clouds,360,2012-12-06 09:53:00
5:53 AM,62.1,60.1,93,30.02,10.0,NNE,5.8,-,N/A,,Scattered Clouds,20,2012-12-06 10:53:00
6:53 AM,63.0,60.1,90,30.03,10.0,NE,8.1,-,N/A,,Scattered Clouds,40,2012-12-06 11:53:00
7:53 AM,66.0,62.1,87,30.04,10.0,NE,4.6,-,N/A,,Mostly Cloudy,40,2012-12-06 12:53:00
8:53 AM,70.0,63.0,78,30.06,10.0,Calm,Calm,-,N/A,,Mostly Cloudy,0,2012-12-06 13:53:00
9:53 AM,73.9,63.0,68,30.06,10.0,Calm,Calm,-,N/A,,Mostly Cloudy,0,2012-12-06 14:53:00
10:53 AM,78.1,62.1,58,30.05,10.0,ENE,9.2,-,N/A,,Mostly Cloudy,70,2012-12-06 15:53:00
11:53 AM,75.9,62.1,62,30.03,10.0,ENE,6.9,-,N/A,,Scattered Clouds,70,2012-12-06 16:53:00
12:53 PM,75.9,61.0,60,30.00,10.0,ENE,4.6,-,N/A,,Scattered Clouds,60,2012-12-06 17:53:00
1:53 PM,80.1,59.0,48,29.96,10.0,East,9.2,-,N/A,,Mostly Cloudy,90,2012-12-06 18:53:00
2:53 PM,79.0,60.1,52,29.95,10.0,NE,10.4,-,N/A,,Scattered Clouds,50,2012-12-06 19:53:00
3:53 PM,79.0,60.1,52,29.95,10.0,ENE,9.2,-,N/A,,Mostly Cloudy,70,2012-12-06 20:53:00
4:53 PM,75.9,59.0,56,29.96,10.0,ENE,12.7,-,N/A,,Scattered Clouds,60,2012-12-06 21:53:00
5:53 PM,72.0,62.1,71,29.98,10.0,ENE,9.2,-,N/A,,Scattered Clouds,60,2012-12-06 22:53:00
6:53 PM,70.0,63.0,78,29.99,10.0,ENE,9.2,-,N/A,,Partly Cloudy,60,2012-12-06 23:53:00
7:53 PM,68.0,64.0,87,29.99,10.0,NNE,4.6,-,N/A,,Clear,30,2012-12-07 00:53:00
8:53 PM,68.0,63.0,84,30.00,10.0,NNE,5.8,-,N/A,,Partly Cloudy,30,2012-12-07 01:53:00
9:53 PM,64.9,63.0,93,30.00,10.0,North,4.6,-,N/A,,Partly Cloudy,350,2012-12-07 02:53:00
10:53 PM,63.0,62.1,97,29.99,10.0,North,4.6,-,N/A,,Partly Cloudy,360,2012-12-07 03:53:00
11:46 PM,64.4,62.6,94,30.00,10.0,NNE,5.8,-,N/A,,Partly Cloudy,20,2012-12-07 04:46:00
11:51 PM,64.4,62.6,94,30.00,2.0,NNE,4.6,-,N/A,,Scattered Clouds,20,2012-12-07 04:51:00
11:53 PM,64.0,63.0,96,29.99,2.0,North,8.1,-,N/A,,Scattered Clouds,10,2012-12-07 04:53:00
11:56 PM,64.4,62.6,94,30.00,1.0,North,8.1,-,N/A,,Mostly Cloudy,10,2012-12-07 04:56:00